Hourly Weather Rumyancevo

Today, 10 April, Saturday

Time Temperature Precipitation Wind Pressure Humidity
00:00 +1°C° 0 mm 5 mps 745 mmHg 67%
01:00 +1°C° 0 mm 5 mps 745 mmHg 68%
02:00 +1°C° 0 mm 5 mps 745 mmHg 70%
03:00 +1°C° 0 mm 5 mps 744 mmHg 72%
04:00 0°C° 0 mm 5 mps 744 mmHg 74%
05:00 0°C° 0 mm 5 mps 744 mmHg 76%
06:00 +1°C° 0 mm 5 mps 744 mmHg 73%
07:00 +1°C° 0 mm 6 mps 744 mmHg 71%
08:00 +2°C° 0 mm 6 mps 744 mmHg 69%
09:00 +4°C° 0 mm 7 mps 744 mmHg 64%
10:00 +5°C° 0 mm 7 mps 744 mmHg 58%
11:00 +8°C° 0 mm 7 mps 744 mmHg 53%
12:00 +9°C° 0 mm 8 mps 744 mmHg 51%
13:00 +10°C° 0 mm 8 mps 744 mmHg 49%
14:00 +11°C° 0 mm 8 mps 744 mmHg 47%
15:00 +11°C° 0 mm 7 mps 744 mmHg 49%
16:00 +11°C° 0 mm 6 mps 744 mmHg 52%
17:00 +12°C° 0 mm 5 mps 744 mmHg 54%
18:00 +10°C° 0 mm 5 mps 744 mmHg 59%
19:00 +10°C° 0 mm 4 mps 745 mmHg 63%
20:00 +8°C° 0 mm 4 mps 745 mmHg 67%
21:00 +7°C° 0 mm 4 mps 745 mmHg 69%
22:00 +7°C° 0 mm 4 mps 745 mmHg 70%
23:00 +7°C° 0 mm 4 mps 745 mmHg 72%

Tomorrow, 11 April, Sunday

Time Temperature Precipitation Wind Pressure Humidity
00:00 +6°C° 0 mm 4 mps 746 mmHg 74%
01:00 +6°C° 0 mm 4 mps 746 mmHg 75%
02:00 +5°C° 0 mm 4 mps 746 mmHg 77%
03:00 +5°C° 0 mm 4 mps 746 mmHg 79%
04:00 +5°C° 0 mm 4 mps 747 mmHg 80%
05:00 +4°C° 0 mm 4 mps 747 mmHg 82%
06:00 +5°C° 0 mm 4 mps 747 mmHg 80%
07:00 +6°C° 0 mm 4 mps 748 mmHg 77%
08:00 +7°C° 0 mm 4 mps 748 mmHg 74%
09:00 +8°C° 0 mm 4 mps 748 mmHg 70%
10:00 +10°C° 0 mm 4 mps 749 mmHg 65%
11:00 +12°C° 0 mm 5 mps 749 mmHg 61%
12:00 +13°C° 0 mm 5 mps 749 mmHg 57%
13:00 +14°C° 0 mm 5 mps 749 mmHg 53%
14:00 +15°C° 0 mm 5 mps 749 mmHg 50%
15:00 +15°C° 0 mm 5 mps 749 mmHg 50%
16:00 +15°C° 0 mm 4 mps 749 mmHg 51%
17:00 +15°C° 0 mm 4 mps 749 mmHg 52%
18:00 +13°C° 0 mm 3 mps 749 mmHg 56%
19:00 +12°C° 0 mm 3 mps 749 mmHg 61%
20:00 +10°C° 0 mm 3 mps 750 mmHg 65%
21:00 +9°C° 0 mm 3 mps 750 mmHg 66%
22:00 +8°C° 0 mm 3 mps 750 mmHg 67%
23:00 +8°C° 0 mm 3 mps 750 mmHg 68%

Day after tomorrow, 12 April, Monday

Time Temperature Precipitation Wind Pressure Humidity
00:00 +7°C° 0 mm 3 mps 750 mmHg 69%
01:00 +5°C° 0 mm 3 mps 750 mmHg 71%
02:00 +5°C° 0 mm 3 mps 750 mmHg 72%
03:00 +4°C° 0 mm 3 mps 750 mmHg 73%
04:00 +4°C° 0 mm 3 mps 750 mmHg 74%
05:00 +3°C° 0 mm 3 mps 750 mmHg 75%
06:00 +5°C° 0 mm 3 mps 750 mmHg 70%
07:00 +6°C° 0 mm 4 mps 750 mmHg 65%
08:00 +7°C° 0 mm 5 mps 749 mmHg 60%
09:00 +8°C° 0 mm 5 mps 749 mmHg 54%
10:00 +10°C° 0 mm 6 mps 749 mmHg 49%
11:00 +13°C° 0 mm 6 mps 749 mmHg 43%
12:00 +13°C° 0 mm 6 mps 748 mmHg 41%
13:00 +14°C° 0 mm 6 mps 748 mmHg 38%
14:00 +15°C° 0 mm 5 mps 748 mmHg 36%
15:00 +15°C° 0 mm 5 mps 747 mmHg 38%
16:00 +14°C° 0 mm 4 mps 747 mmHg 40%
17:00 +14°C° 0 mm 4 mps 746 mmHg 43%
18:00 +13°C° 0 mm 3 mps 746 mmHg 48%
19:00 +11°C° 0 mm 3 mps 746 mmHg 53%
20:00 +10°C° 0 mm 3 mps 746 mmHg 58%
21:00 +9°C° 0 mm 3 mps 746 mmHg 61%
22:00 +8°C° 0 mm 3 mps 746 mmHg 64%
23:00 +7°C° 0 mm 3 mps 746 mmHg 67%

13 April, Tuesday

Time Temperature Precipitation Wind Pressure Humidity
00:00 +7°C° 0 mm 3 mps 746 mmHg 70%
01:00 +5°C° 0 mm 3 mps 746 mmHg 73%
02:00 +6°C° 0 mm 2 mps 746 mmHg 75%
03:00 +5°C° 0 mm 2 mps 746 mmHg 78%
04:00 +5°C° 0 mm 2 mps 745 mmHg 80%
05:00 +5°C° 0 mm 2 mps 745 mmHg 82%
06:00 +6°C° 0 mm 2 mps 745 mmHg 77%
07:00 +8°C° 0 mm 2 mps 745 mmHg 73%
08:00 +9°C° 0 mm 3 mps 745 mmHg 68%
09:00 +11°C° 0 mm 3 mps 745 mmHg 61%
10:00 +12°C° 0 mm 3 mps 745 mmHg 54%
11:00 +14°C° 0 mm 3 mps 745 mmHg 48%
12:00 +16°C° 0 mm 3 mps 745 mmHg 45%
13:00 +17°C° 0 mm 2 mps 744 mmHg 42%
14:00 +18°C° 0 mm 2 mps 744 mmHg 39%
15:00 +18°C° 0 mm 2 mps 744 mmHg 40%
16:00 +19°C° 0 mm 1 mps 743 mmHg 41%
17:00 +18°C° 0 mm 1 mps 743 mmHg 41%
18:00 +16°C° 0 mm 1 mps 743 mmHg 49%
19:00 +14°C° 0 mm 1 mps 743 mmHg 57%
20:00 +13°C° 0 mm 2 mps 743 mmHg 65%
21:00 +12°C° 0 mm 2 mps 743 mmHg 72%
22:00 +10°C° 0 mm 2 mps 743 mmHg 79%
23:00 +10°C° 0 mm 2 mps 743 mmHg 86%

14 April, Wednesday

Time Temperature Precipitation Wind Pressure Humidity
00:00 +10°C° 0 mm 2 mps 742 mmHg 88%
01:00 +9°C° 0 mm 2 mps 742 mmHg 90%
02:00 +9°C° 0 mm 2 mps 742 mmHg 92%
03:00 +9°C° 0 mm 2 mps 741 mmHg 93%
04:00 +8°C° 0 mm 2 mps 741 mmHg 94%
05:00 +8°C° 0 mm 2 mps 741 mmHg 95%
06:00 +9°C° 0.1 mm 2 mps 741 mmHg 93%
07:00 +10°C° 0.1 mm 3 mps 741 mmHg 92%
08:00 +10°C° 0.1 mm 3 mps 741 mmHg 90%
09:00 +10°C° 0.1 mm 3 mps 740 mmHg 89%
10:00 +11°C° 0.1 mm 3 mps 740 mmHg 88%
11:00 +11°C° 0.1 mm 3 mps 740 mmHg 88%
12:00 +11°C° 0.2 mm 3 mps 740 mmHg 86%
13:00 +11°C° 0.2 mm 3 mps 740 mmHg 83%
14:00 +12°C° 0.2 mm 3 mps 739 mmHg 81%
15:00 +11°C° 0.4 mm 3 mps 739 mmHg 85%
16:00 +10°C° 0.4 mm 3 mps 739 mmHg 88%
17:00 +10°C° 0.4 mm 4 mps 739 mmHg 92%
18:00 +9°C° 0.4 mm 3 mps 739 mmHg 93%
19:00 +9°C° 0.4 mm 3 mps 739 mmHg 95%
20:00 +9°C° 0.4 mm 3 mps 739 mmHg 96%
21:00 +9°C° 0.4 mm 3 mps 739 mmHg 96%
22:00 +9°C° 0.4 mm 3 mps 739 mmHg 96%
23:00 +8°C° 0.4 mm 3 mps 739 mmHg 95%

15 April, Thursday

Time Temperature Precipitation Wind Pressure Humidity
00:00 +8°C° 0.4 mm 3 mps 739 mmHg 95%
01:00 +8°C° 0.4 mm 2 mps 739 mmHg 95%
02:00 +8°C° 0.4 mm 2 mps 739 mmHg 95%
03:00 +8°C° 0.1 mm 2 mps 739 mmHg 94%
04:00 +8°C° 0.1 mm 2 mps 738 mmHg 94%
05:00 +7°C° 0.1 mm 2 mps 738 mmHg 93%
06:00 +8°C° 0 mm 2 mps 739 mmHg 89%
07:00 +9°C° 0 mm 3 mps 739 mmHg 85%
08:00 +9°C° 0 mm 3 mps 739 mmHg 81%
09:00 +9°C° 0.2 mm 3 mps 739 mmHg 81%
10:00 +9°C° 0.2 mm 2 mps 739 mmHg 82%
11:00 +9°C° 0.2 mm 2 mps 739 mmHg 82%
12:00 +10°C° 0.1 mm 2 mps 739 mmHg 81%
13:00 +10°C° 0.1 mm 2 mps 739 mmHg 79%
14:00 +11°C° 0.1 mm 1 mps 739 mmHg 78%
15:00 +10°C° 0.1 mm 2 mps 739 mmHg 78%
16:00 +11°C° 0.1 mm 3 mps 739 mmHg 78%
17:00 +11°C° 0.1 mm 3 mps 738 mmHg 79%
18:00 +10°C° 0.3 mm 4 mps 738 mmHg 82%
19:00 +10°C° 0.3 mm 4 mps 738 mmHg 86%
20:00 +8°C° 0.3 mm 5 mps 738 mmHg 90%
21:00 +8°C° 0.6 mm 5 mps 738 mmHg 91%
22:00 +7°C° 0.6 mm 6 mps 738 mmHg 93%
23:00 +6°C° 0.6 mm 7 mps 737 mmHg 94%
Show more